C/2018 E1 ( ATLAS )

Japanese version
Home page
Updated on May 20, 2019

---------------------------------------------------------------------

* Profile

Discovery Date March 10, 2018
Magnitude 16.8 mag
Discoverer Asteroid Terrestrial-impact Last Alert System (ATLAS) search program

* Pictures

* Orbital Elements

Epoch 2018 May 2.0 TT = JDT 2458240.5
T 2018 Apr. 17.32339 TT                                 MPCW
q   2.7054400            (2000.0)            P               Q
z  +0.0183551      Peri.  299.47221     -0.26852666     -0.80983424
 +/-0.0000000      Node   146.84066     +0.77844281     +0.13650401
e   0.9503415      Incl.   72.47970     -0.56738014     +0.57055689
From 313 observations 2015 Aug. 11-2019 Apr. 1, mean residual 0".4.

* Finding Charts

* Magnitudes Graph

        m1 = 10.5 + 5 log d +  8.5 log r(t - 50)  [ ,0]  (             - 2018 Apr. 17)
        m1 = 10.0 + 5 log d + 10.0 log r          [0, ]  (2018 Apr. 17 -             )

---------------------------------------------------------------------

The orbital elements are published on M.P.E.C. 2019-J142.
The charts are made with StellaNavigator Ver.10 (AstroArts).
The magnitudes graphs are made with Comet for Windows.

---------------------------------------------------------------------

Copyright(C) Seiichi Yoshida (comet@aerith.net). All rights reserved.